This demonstration page uses our WeatherBlox Daily Observations layout. Learn more.

Left ArrowRight Arrow

53.62937, 11.41316

Hourly Observations for January 18, 2022

Temp ( °F °C ) Dew Point ( °F °C ) Humidity (%) Winds ( mph kmh ) Pressure ( in mb ) Visibility ( mi km ) Precip ( " mm )
12:20 am 00:20 Cloudy 36 2 32 0 87 87 W 5 7 30.48 1032 30 48 N/A
12:50 am 00:50 Mostly Cloudy 37 3 32 0 81 81 W 7 11 30.48 1032 30 48 N/A
1:20 am 01:20 Cloudy 39 4 34 1 81 81 WNW 9 15 30.48 1032 30 48 N/A
1:50 am 01:50 Cloudy 39 4 34 1 81 81 WNW 8 13 30.48 1032 30 48 N/A
2:20 am 02:20 Mostly Cloudy 41 5 34 1 76 76 WNW 10 17 30.48 1032 30 48 N/A
2:50 am 02:50 Cloudy 39 4 36 2 87 87 WNW 6 9 30.51 1033 30 48 N/A
3:20 am 03:20 Cloudy 41 5 36 2 81 81 W 7 11 30.51 1033 30 48 N/A
3:50 am 03:50 Cloudy 41 5 36 2 81 81 WNW 7 11 30.51 1033 30 48 N/A
4:20 am 04:20 Cloudy 41 5 36 2 81 81 W 7 11 30.51 1033 30 48 N/A
4:50 am 04:50 Mostly Cloudy 41 5 36 2 81 81 W 6 9 30.51 1033 30 48 N/A
5:20 am 05:20 Cloudy 41 5 36 2 81 81 WNW 7 11 30.51 1033 30 48 N/A
5:50 am 05:50 Cloudy 41 5 36 2 81 81 W 5 7 30.51 1033 30 48 N/A
6:20 am 06:20 Mostly Cloudy 41 5 37 3 87 87 W 6 9 30.54 1034 30 48 N/A
6:50 am 06:50 Mostly Cloudy 43 6 36 2 76 76 NW 8 13 30.54 1034 30 48 N/A
7:20 am 07:20 Cloudy 41 5 37 3 87 87 W 3 6 30.54 1034 30 48 N/A
7:50 am 07:50 Mostly Cloudy 41 5 37 3 87 87 W 3 6 30.54 1034 30 48 N/A
8:20 am 08:20 Cloudy 41 5 37 3 87 87 WSW 5 7 30.54 1034 30 48 N/A
8:50 am 08:50 Mostly Cloudy 41 5 39 4 93 93 W 7 11 30.54 1034 30 48 N/A
9:20 am 09:20 Mostly Cloudy 41 5 39 4 93 93 WSW 5 7 30.57 1035 30 48 N/A
9:50 am 09:50 Mostly Cloudy 43 6 39 4 87 87 W 6 9 30.57 1035 30 48 N/A
10:20 am 10:20 Mostly Cloudy 43 6 39 4 87 87 W 5 7 30.57 1035 30 48 N/A
10:50 am 10:50 Mostly Cloudy 43 6 41 5 93 93 W 7 11 30.57 1035 30 48 N/A
11:20 am 11:20 Mostly Cloudy 45 7 41 5 87 87 W 8 13 30.57 1035 30 48 N/A
11:50 am 11:50 Mostly Cloudy 45 7 39 4 81 81 W 8 13 30.57 1035 30 48 N/A
12:20 pm 12:20 Mostly Cloudy 45 7 39 4 81 81 W 13 20 30.57 1035 30 48 N/A
12:50 pm 12:50 Mostly Cloudy 43 6 39 4 87 87 WNW 13 20 30.57 1035 30 48 N/A
1:20 pm 13:20 Cloudy 43 6 39 4 87 87 W 14 22 30.57 1035 30 48 N/A
1:50 pm 13:50 Mostly Cloudy 45 7 39 4 81 81 W 9 15 30.57 1035 30 48 N/A
2:20 pm 14:20 Cloudy 45 7 39 4 81 81 W 9 15 30.54 1034 30 48 N/A
2:50 pm 14:50 Cloudy 45 7 39 4 81 81 W 14 22 30.54 1034 30 48 N/A
3:20 pm 15:20 Mostly Cloudy 43 6 39 4 87 87 W 12 19 30.54 1034 30 48 N/A
3:50 pm 15:50 Mostly Cloudy 43 6 39 4 87 87 W 12 19 30.54 1034 30 48 N/A
4:20 pm 16:20 Cloudy 43 6 39 4 87 87 W 12 19 30.54 1034 30 48 N/A
4:50 pm 16:50 Cloudy 43 6 39 4 87 87 W 10 17 30.54 1034 30 48 N/A
5:20 pm 17:20 Cloudy 41 5 37 3 87 87 W 9 15 30.54 1034 30 48 N/A
5:50 pm 17:50 Mostly Cloudy 41 5 39 4 93 93 WSW 7 11 30.54 1034 30 48 N/A
6:20 pm 18:20 Mostly Cloudy 41 5 39 4 93 93 WSW 7 11 30.54 1034 30 48 N/A
6:50 pm 18:50 Cloudy 41 5 39 4 93 93 WSW 8 13 30.54 1034 30 48 N/A
7:20 pm 19:20 Mostly Cloudy 41 5 37 3 87 87 W 9 15 30.54 1034 30 48 N/A
7:50 pm 19:50 Cloudy 41 5 37 3 87 87 W 9 15 30.54 1034 30 48 N/A
8:20 pm 20:20 Cloudy 41 5 37 3 87 87 WSW 8 13 30.54 1034 30 48 N/A
8:50 pm 20:50 Cloudy 41 5 37 3 87 87 WSW 7 11 30.51 1033 30 48 N/A
9:20 pm 21:20 Cloudy 43 6 37 3 81 81 WSW 10 17 30.51 1033 30 48 N/A
9:50 pm 21:50 Cloudy 41 5 37 3 87 87 WSW 8 13 30.51 1033 30 48 N/A
10:20 pm 22:20 Cloudy 41 5 37 3 87 87 WSW 10 17 30.48 1032 30 48 N/A
10:50 pm 22:50 Cloudy 41 5 37 3 87 87 WSW 9 15 30.48 1032 30 48 N/A
11:20 pm 23:20 Cloudy 41 5 37 3 87 87 WSW 10 17 30.48 1032 30 48 N/A
11:50 pm 23:50 Cloudy 41 5 37 3 87 87 WSW 9 15 30.48 1032 30 48 N/A

Powered by AerisWeather